Location: Shepherdstown, WV
(39.4326°N, 77.8042°W)
Time: 21:14:44
(UTC-04:00)

Vanguard 1 Rocket - Pass Details

Date: 13 August 2021
Orbit: 650 x 4226 km, 34.3° (Epoch: 16 September)

Event Time Altitude Azimuth Distance (km) Brightness Sun altitude
Rises 04:51:45 0° 197° (SSW) 7,286 - -16.3°
Exits shadow 04:51:51 - 197° (SSW) 7,274 11.5 -16.3°
Reaches altitude 10° 04:57:23 10° 187° (S) 6,691 11.4 -15.4°
Maximum altitude 05:16:16 30° 135° (SE) 5,822 11.6 -12.3°
Drops below altitude 10° 05:35:38 10° 84° (E) 6,979 13.1 -9.1°
Sets 05:41:28 0° 76° (ENE) 7,645 14.1 -8.1°
